TimeCDT,TemperatureF,Dew PointF,Humidity,Sea Level PressureIn,VisibilityMPH,Wind Direction,Wind SpeedMPH,Gust SpeedMPH,PrecipitationIn,Events,Conditions,WindDirDegrees,DateUTC
12:53 AM,72.0,37.9,29,30.01,10.0,South,12.7,-,N/A,,Clear,190,2013-05-14 05:53:00
1:53 AM,71.1,39.0,31,30.00,10.0,SSW,12.7,-,N/A,,Clear,200,2013-05-14 06:53:00
2:53 AM,69.1,41.0,36,29.99,10.0,SSW,11.5,-,N/A,,Clear,200,2013-05-14 07:53:00
3:53 AM,63.0,43.0,48,29.99,10.0,SSW,5.8,-,N/A,,Clear,210,2013-05-14 08:53:00
4:53 AM,60.1,43.0,53,30.00,10.0,South,8.1,-,N/A,,Clear,190,2013-05-14 09:53:00
5:53 AM,57.9,44.1,60,30.01,10.0,SSW,8.1,-,N/A,,Clear,210,2013-05-14 10:53:00
6:53 AM,59.0,45.0,60,30.01,10.0,SW,6.9,-,N/A,,Clear,230,2013-05-14 11:53:00
7:53 AM,64.0,46.9,54,30.02,10.0,SW,4.6,-,N/A,,Clear,220,2013-05-14 12:53:00
8:53 AM,72.0,48.9,44,30.02,10.0,SW,11.5,-,N/A,,Clear,220,2013-05-14 13:53:00
9:53 AM,78.1,51.1,39,30.03,10.0,SW,12.7,21.9,N/A,,Clear,230,2013-05-14 14:53:00
10:53 AM,82.0,52.0,35,30.01,10.0,SSW,16.1,-,N/A,,Clear,210,2013-05-14 15:53:00
11:53 AM,84.0,52.0,33,30.01,10.0,SSW,13.8,20.7,N/A,,Clear,200,2013-05-14 16:53:00
12:53 PM,87.1,48.9,27,29.97,10.0,SSW,17.3,24.2,N/A,,Clear,210,2013-05-14 17:53:00
1:53 PM,88.0,46.0,23,29.94,10.0,SSW,15.0,23.0,N/A,,Clear,200,2013-05-14 18:53:00
2:53 PM,90.0,46.0,22,29.91,10.0,South,17.3,25.3,N/A,,Clear,190,2013-05-14 19:53:00
3:53 PM,91.0,46.9,22,29.88,10.0,SSW,19.6,27.6,N/A,,Clear,200,2013-05-14 20:53:00
4:53 PM,91.0,48.9,23,29.86,10.0,South,15.0,28.8,N/A,,Clear,180,2013-05-14 21:53:00
5:53 PM,89.1,52.0,28,29.84,10.0,South,17.3,27.6,N/A,,Partly Cloudy,180,2013-05-14 22:53:00
6:53 PM,89.1,51.1,27,29.81,10.0,South,21.9,29.9,N/A,,Clear,180,2013-05-14 23:53:00
7:53 PM,86.0,53.1,32,29.81,10.0,South,12.7,21.9,N/A,,Clear,180,2013-05-15 00:53:00
8:53 PM,81.0,54.0,39,29.81,10.0,South,10.4,-,N/A,,Unknown,170,2013-05-15 01:53:00
9:53 PM,81.0,53.1,38,29.84,10.0,South,15.0,-,N/A,,Clear,170,2013-05-15 02:53:00
10:53 PM,80.1,53.1,39,29.84,10.0,South,17.3,25.3,N/A,,Clear,170,2013-05-15 03:53:00
11:53 PM,75.9,52.0,43,29.86,10.0,SSW,11.5,27.6,N/A,,Clear,210,2013-05-15 04:53:00